Location: Unspecified
(51.0950°N, 12.9690°E)
Time: 15:01:44
(UTC+00:00)

EO-79 - Pass Details

Date: 01 May 2024
Orbit: 562 x 575 km, 98.0° (Epoch: 25 May)

Event Time Altitude Azimuth Distance (km) Brightness Sun altitude
Rises 01:21:06 0° 26° (NNE) 2,804 ? -17.4°
Reaches altitude 10° 01:23:46 10° 44° (NE) 1,900 ? -17.2°
Maximum altitude 01:26:47 20° 92° (E) 1,378 ? -16.9°
Drops below altitude 10° 01:29:48 10° 139° (SE) 1,888 ? -16.6°
Enters shadow 01:31:11 - 150° (SSE) 2,335 ? -16.5°
